Preview of NWS' New Version of Forecast
This preview is not operational and should not be used for support decisions.

Terminal Aerodrome Forecast (TAF)

Issued by National Weather Service (NWS)

                            
000
FTUS42 KKEY 151121
TAFEYW
TAF
KEYW 151121Z 1512/1612 35010KT P6SM SCT025
      TEMPO 1512/1515 36012G19KT BKN020=